[[{"header":{"parameterUnit":"m.s-1","parameterCategory":1,"la1":30.2991,"la2":30.254,"lo1":-89.0895,"lo2":-89.0444,"dy":0.0017,"dx":0.0017,"nx":28,"ny":28,"refTime":"2025-06-18T21:00:00:Z","depth":0,"parameterNumber":2,"parameterNumberName":"U-component_of_WINDS"},"data":[0,0,0,0,0,0,0,0,0,0,0,0,0,0,0,0,0,0,0,0,0,0,0,0,0,0,0,0,0,0,0,0,0,0,0,0,0,0,0,0,0,0,0,0,0,0,0,0,0,0,0,0,0,0,0,0,0,0,2.3703,2.3702,0,2.369,2.369,2.369,2.3637,2.3636,2.3634,2.3633,2.362,2.3621,2.3622,0,0,0,0,0,0,0,0,0,0,0,0,0,2.3677,2.3678,2.3703,2.3702,2.3702,2.3691,2.369,2.369,2.3637,2.3636,2.3634,2.3633,2.362,2.3621,2.3622,0,0,0,0,0,0,0,0,0,0,0,0,0,2.3679,2.3678,2.3703,2.3674,2.3672,2.3691,2.369,2.369,2.3637,2.3635,2.3634,2.3632,2.3619,2.3621,2.3622,2.3667,0,0,2.3625,2.3626,0,0,0,0,0,0,0,0,2.3679,2.368,2.3679,2.3676,2.3673,2.3663,2.3676,2.3682,2.3638,2.365,2.3633,2.3631,2.3636,2.3636,2.3637,2.3666,2.3665,2.3626,2.3626,2.3627,2.3627,0,0,0,0,0,0,0,2.3679,2.368,2.3698,2.3679,2.3675,2.3661,2.366,2.3677,2.3654,2.3649,2.3645,2.3645,2.3634,2.3636,2.3637,2.3665,2.3625,2.3627,2.3627,2.3628,2.3726,2.3728,0,0,0,0,0,0,2.3683,2.368,2.3698,2.3697,2.3672,2.3663,2.3661,2.3668,2.3653,2.3649,2.3646,2.3642,2.3635,2.3635,2.3636,2.3685,2.3627,2.3628,2.3629,2.3724,2.3727,2.3729,0,0,0,0,0,0,2.3682,2.3685,2.3699,2.3688,2.3688,2.3666,2.3674,2.3669,2.3671,2.3651,2.3646,2.3653,2.3634,2.3634,2.3659,2.3683,2.3628,2.363,2.3722,2.3725,2.3728,2.3784,0,0,0,0,0,0,2.3682,2.3685,2.3703,2.3689,2.3689,2.3722,2.3676,2.367,2.3674,2.3668,2.3656,2.3652,2.3632,2.3657,2.366,2.3684,2.3631,2.372,2.3723,2.3727,2.378,2.3789,2.3796,0,0,0,0,0,2.3681,2.372,2.3704,2.3706,2.3711,2.3724,2.3724,2.37,2.3676,2.3693,2.3679,2.3653,2.3681,2.366,2.3663,2.3688,2.3718,2.3722,2.3726,2.3776,2.3787,2.3796,0,0,0,0,0,0,2.3738,2.3717,2.37,2.3735,2.3731,2.3715,2.3735,2.3713,2.3716,2.3711,2.3681,2.3679,2.3707,2.37,2.3677,2.3729,2.3695,2.37,2.3732,2.3742,2.375,2.3749,2.3632,0,0,0,0,0,2.3754,2.3767,2.3749,2.3781,2.3781,2.3759,2.3763,2.3745,2.374,2.3739,2.3727,2.3723,2.373,2.3736,2.3742,2.3779,2.3774,2.3798,2.3806,2.3812,2.3816,2.3832,2.3841,2.3743,2.3743,2.3742,0,0,2.3789,2.3779,2.3789,2.3792,2.3788,2.38,2.3758,2.3774,2.3782,2.3741,2.3762,2.3754,2.3747,2.3777,2.379,2.3772,2.3843,2.3818,2.3823,2.3823,2.3838,2.3847,2.3855,2.3745,2.3745,2.3744,0,0,2.3857,2.3852,2.3877,2.3873,2.3866,2.3851,2.3857,2.3843,2.3836,2.3857,2.3825,2.3835,2.385,2.3845,2.3845,2.3909,2.3884,2.3912,2.3953,2.3969,2.3977,2.3983,2.4003,2.4011,2.3917,2.3917,2.3917,0,2.39,2.3918,2.3893,2.391,2.3911,2.3875,2.3898,2.3896,2.3891,2.3892,2.3873,2.3888,2.3882,2.3908,2.3924,2.3926,2.393,2.3912,2.3978,2.3984,2.399,2.4009,2.4017,2.392,2.392,2.3919,2.3919,0,2.397,2.3984,2.4005,2.4,2.4004,2.4025,2.4001,2.4008,2.3989,2.3976,2.3996,2.3987,2.3988,2.3994,2.3977,2.4018,2.4007,2.3983,2.3948,2.4003,2.402,2.4027,2.3925,2.3923,2.3922,2.3922,0,0,2.4074,2.4054,2.4061,2.4058,2.4047,2.4056,2.4074,2.4076,2.4081,2.4079,2.4092,2.4104,2.4081,2.4081,2.4062,2.4077,2.4124,2.4051,2.405,2.4062,2.4166,2.4181,2.419,2.4108,2.411,2.4111,2.4165,0,2.4136,2.4166,2.4143,2.4176,2.4186,2.4151,2.4166,2.416,2.4148,2.4154,2.414,2.4148,2.4119,2.4118,2.4131,2.4116,2.4144,2.4112,2.4118,2.4118,2.4118,2.42,2.4217,2.4269,2.4172,2.4173,2.4174,0,2.4213,2.4213,2.4248,2.4232,2.4235,2.4249,2.4247,2.4255,2.4246,2.4236,2.4235,2.4212,2.4227,2.4194,2.4213,2.4191,2.4192,2.4186,2.4187,2.4184,2.4148,2.4197,2.4285,2.4292,2.4185,2.4184,2.4183,0,2.4281,2.429,2.4311,2.4309,2.4292,2.4302,2.4296,2.4286,2.4287,2.4286,2.4286,2.4287,2.4287,2.4287,2.4264,2.4243,2.4285,2.4251,2.4274,2.4275,2.4283,2.4283,2.437,2.4289,2.4289,2.4288,2.4288,0,2.4352,2.4373,2.4341,2.4353,2.4375,2.4348,2.4371,2.436,2.4352,2.436,2.4331,2.4339,2.4309,2.4315,2.4297,2.4313,2.4315,2.4305,2.4299,2.4306,2.4307,2.4305,2.43,2.429,2.429,2.429,2.4289,0,2.4431,2.441,2.443,2.4411,2.4407,2.4424,2.4408,2.4418,2.4403,2.4414,2.4415,2.4392,2.4396,2.4374,2.4375,2.4362,2.4387,2.4377,2.4389,2.4385,2.4409,2.4406,2.4496,2.4505,2.4421,2.4422,2.4423,0,2.4476,2.4491,2.4474,2.4478,2.4472,2.4479,2.448,2.4453,2.4455,2.4446,2.4457,2.4459,2.4458,2.4467,2.4449,2.4449,2.4437,2.4468,2.4436,2.4442,2.4434,2.4432,2.4432,2.4474,2.4475,2.4476,2.4477,0,2.4557,2.4546,2.4548,2.4547,2.4549,2.4547,2.4542,2.4547,2.4518,2.4522,2.4525,2.4525,2.4525,2.4526,2.4522,2.4514,2.449,2.4487,2.4492,2.4498,2.4503,2.4498,2.4404,2.4485,2.4484,2.4484,2.4483,2.4483,2.4618,2.4629,2.4618,2.4621,2.4615,2.4611,2.4619,2.4605,2.4607,2.4605,2.4589,2.4595,2.4584,2.4576,2.457,2.4574,2.4559,2.4567,2.4568,2.457,2.4573,2.4505,2.4573,2.4573,2.4573,2.4573,2.4573,0,2.4695,2.4686,2.4689,2.4683,2.4686,2.4664,2.4657,2.466,2.4665,2.4658,2.4658,2.4661,2.4662,2.4644,2.4642,2.4648,2.4637,2.4648,2.4646,2.4644,2.4588,2.4582,2.4657,2.4657,2.4657,2.4657,2.4657,2.4657,2.4735,2.4751,2.4738,2.475,2.4741,2.4746,2.4744,2.474,2.4733,2.4738,2.4738,2.4726,2.4714,2.471,2.4709,2.4704,2.4704,2.4718,2.4709,2.4657,2.4648,2.464,2.4635,2.4719,2.4719,2.4764,2.4764,2.4765]},{"header":{"parameterUnit":"m.s-1","parameterCategory":1,"la1":30.2991,"la2":30.254,"lo1":-89.0895,"lo2":-89.0444,"dy":0.0017,"dx":0.0017,"nx":28,"ny":28,"refTime":"2025-06-18T21:00:00:Z","depth":0,"parameterNumber":3,"parameterNumberName":"V-component_of_WINDS"},"data":[0,0,0,0,0,0,0,0,0,0,0,0,0,0,0,0,0,0,0,0,0,0,0,0,0,0,0,0,0,0,0,0,0,0,0,0,0,0,0,0,0,0,0,0,0,0,0,0,0,0,0,0,0,0,0,0,0,0,5.4661,5.4663,0,5.4855,5.4857,5.486,5.484,5.4837,5.4834,5.4831,5.5024,5.5032,5.504,0,0,0,0,0,0,0,0,0,0,0,0,0,5.4264,5.4272,5.466,5.4663,5.4665,5.4855,5.4857,5.486,5.484,5.4837,5.4833,5.483,5.5021,5.5031,5.504,0,0,0,0,0,0,0,0,0,0,0,0,0,5.4445,5.4274,5.466,5.4678,5.4682,5.4854,5.4858,5.4861,5.4841,5.4837,5.4832,5.4828,5.5018,5.503,5.5042,5.5206,0,0,5.5078,5.5083,0,0,0,0,0,0,0,0,5.4435,5.446,5.4673,5.4677,5.4682,5.4819,5.4789,5.4976,5.4842,5.4781,5.4831,5.4826,5.4959,5.4975,5.5022,5.5215,5.5224,5.5079,5.5086,5.5092,5.5095,0,0,0,0,0,0,0,5.4422,5.4451,5.4737,5.4676,5.4682,5.4674,5.4695,5.4824,5.4893,5.4786,5.4785,5.4808,5.496,5.501,5.5026,5.5226,5.5079,5.5089,5.5097,5.5102,5.5562,5.5567,0,0,0,0,0,0,5.4406,5.4441,5.4731,5.4743,5.4545,5.4685,5.4708,5.4779,5.4891,5.4904,5.4812,5.4807,5.4992,5.5012,5.5033,5.5232,5.5091,5.5103,5.511,5.5557,5.5563,5.5568,0,0,0,0,0,0,5.4398,5.4432,5.4723,5.4592,5.4628,5.4697,5.4777,5.4785,5.4835,5.4911,5.4923,5.4851,5.4989,5.5016,5.5163,5.5238,5.5108,5.5119,5.5551,5.5559,5.5566,5.5631,0,0,0,0,0,0,5.4387,5.443,5.4495,5.4594,5.4636,5.4853,5.4781,5.4793,5.4857,5.4852,5.4951,5.4963,5.4988,5.5145,5.5175,5.5252,5.5128,5.5544,5.5554,5.5563,5.5622,5.564,5.5655,0,0,0,0,0,5.4373,5.4505,5.4498,5.4533,5.4719,5.4857,5.4881,5.4909,5.4863,5.4928,5.4976,5.496,5.5225,5.5161,5.5194,5.5276,5.554,5.5552,5.5563,5.5615,5.5636,5.5654,0,0,0,0,0,0,5.4411,5.4518,5.4512,5.468,5.476,5.4854,5.4936,5.4931,5.5024,5.5015,5.5043,5.5066,5.5214,5.5259,5.5186,5.5439,5.5376,5.5394,5.5405,5.5425,5.5441,5.5427,5.5138,0,0,0,0,0,5.4439,5.4545,5.4632,5.4772,5.4812,5.4868,5.4929,5.4944,5.5026,5.5059,5.5118,5.5198,5.5298,5.5364,5.5462,5.5629,5.5649,5.5701,5.5717,5.573,5.5746,5.5835,5.5859,5.5606,5.5606,5.5606,0,0,5.4498,5.457,5.4635,5.4781,5.4845,5.4951,5.4896,5.5011,5.509,5.5076,5.5219,5.5265,5.5355,5.5512,5.5584,5.5555,5.582,5.5745,5.5754,5.5763,5.5849,5.5873,5.5894,5.5614,5.5612,5.5611,0,0,5.466,5.4726,5.4849,5.4914,5.5011,5.5047,5.5076,5.5171,5.5202,5.5346,5.5337,5.5429,5.5603,5.5667,5.5723,5.5907,5.5895,5.5938,5.6022,5.6109,5.6129,5.6146,5.6211,5.6234,5.5953,5.5953,5.5953,0,5.4721,5.4884,5.4913,5.5029,5.5093,5.5087,5.521,5.5271,5.5394,5.5437,5.5402,5.562,5.568,5.5851,5.5896,5.5941,5.5974,5.5926,5.6124,5.6142,5.6159,5.622,5.6245,5.5958,5.5957,5.5957,5.5956,0,5.4952,5.5065,5.5152,5.5273,5.5346,5.5466,5.551,5.5581,5.5588,5.5627,5.5772,5.5844,5.5955,5.5996,5.6004,5.6168,5.6147,5.6118,5.6054,5.6187,5.6245,5.6269,5.5964,5.5962,5.5961,5.596,0,0,5.5145,5.528,5.5311,5.5365,5.5471,5.5558,5.5675,5.5785,5.5844,5.5929,5.6026,5.6173,5.6147,5.6209,5.6224,5.6301,5.644,5.6262,5.6265,5.6292,5.6623,5.6643,5.667,5.6432,5.6437,5.6441,5.6615,0,5.5316,5.5528,5.5556,5.5742,5.5845,5.5839,5.5941,5.6016,5.6055,5.6145,5.6187,5.629,5.6248,5.6286,5.6361,5.6407,5.6507,5.6395,5.6521,5.6526,5.6499,5.6701,5.6724,5.6884,5.6638,5.6642,5.6644,0,5.5546,5.5638,5.5834,5.5925,5.5969,5.6061,5.6163,5.6251,5.6334,5.6356,5.6426,5.6431,5.6549,5.6482,5.6644,5.6567,5.662,5.6651,5.6657,5.667,5.6593,5.6718,5.6937,5.696,5.6681,5.6678,5.6675,0,5.5664,5.5838,5.5977,5.6024,5.6133,5.6197,5.6245,5.6325,5.6388,5.6477,5.6518,5.6618,5.6673,5.6749,5.678,5.6728,5.694,5.6875,5.696,5.696,5.7005,5.7002,5.7235,5.7041,5.704,5.704,5.7039,0,5.5853,5.5973,5.6032,5.6118,5.6251,5.6281,5.6412,5.6457,5.6527,5.6619,5.662,5.6706,5.6742,5.6833,5.6858,5.6988,5.7012,5.7032,5.7037,5.7032,5.7029,5.7066,5.7056,5.7046,5.7045,5.7044,5.7042,0,5.6009,5.6054,5.6205,5.6296,5.6322,5.6416,5.6493,5.6574,5.6611,5.6728,5.6757,5.6814,5.6922,5.696,5.709,5.7106,5.7256,5.7252,5.7229,5.723,5.7312,5.7303,5.7576,5.7613,5.7396,5.7398,5.7399,0,5.6126,5.6218,5.6319,5.6382,5.6433,5.6534,5.66,5.6632,5.6699,5.68,5.6869,5.6976,5.7063,5.7234,5.7286,5.7384,5.7382,5.7471,5.7396,5.7388,5.7382,5.7376,5.7384,5.7484,5.7486,5.7488,5.749,0,5.6328,5.6345,5.6441,5.6544,5.6622,5.6704,5.6784,5.6834,5.6878,5.6953,5.7064,5.7132,5.7264,5.7369,5.747,5.7516,5.751,5.7513,5.7537,5.7533,5.7515,5.7524,5.7265,5.7506,5.7505,5.7503,5.7502,5.7502,5.6467,5.6548,5.6632,5.6738,5.6801,5.6875,5.6956,5.7003,5.7097,5.7209,5.7221,5.7339,5.7418,5.7553,5.7604,5.7695,5.767,5.7706,5.7715,5.7723,5.7729,5.7501,5.7713,5.7713,5.7712,5.7712,5.7712,0,5.6669,5.6722,5.6819,5.6931,5.7013,5.7002,5.7088,5.7157,5.7262,5.7337,5.7423,5.7548,5.765,5.771,5.7811,5.7872,5.7871,5.7897,5.7893,5.7903,5.7746,5.7714,5.7896,5.7896,5.7896,5.7896,5.7896,5.7896,5.6783,5.6919,5.6946,5.7113,5.7165,5.7282,5.7333,5.74,5.746,5.7601,5.7686,5.7724,5.7792,5.7898,5.799,5.8005,5.8041,5.8069,5.8081,5.7933,5.7914,5.7896,5.7866,5.8077,5.8078,5.8231,5.8232,5.8234]}]]